Weather Roundup
Issued by NWS Chicago, IL

Home | Current Version | Previous Version | Graphics & Text | Print | Product List | Glossary On
Versions: 1 2 3 4 5 6 7 8 9 10 11 12 13 14 15 16 17 18 19 20 21 22 23 24 25 26 27 28 29 30 31 32 33 34 35 36 37 38 39 40 41 42 43 44 45 46 47 48 49 50
000
NZUS59 KLOT 220010
HRRLOT

CHICAGO AREA WEATHER ROUNDUP
NATIONAL WEATHER SERVICE CHICAGO/ROMEOVILLE IL
700 PM CDT TUE OCT 21 2014

NOTE: "FAIR" INDICATES FEW OR NO CLOUDS BELOW 12,000 FEET WITH NO
SIGNIFICANT WEATHER AND/OR OBSTRUCTIONS TO VISIBILITY.

* THESE STATIONS ARE NOT UNDER NWS QUALITY CONTROL. THEY ALSO MAY NOT
  REPORT WEATHER SUCH AS PRECIPITATION OR FOG.

ILZ005-006-012>014-019>023-220100-
NORTHEAST ILLINOIS

CITY           SKY/WX    TMP DP  RH WIND       PRES   REMARKS
OHARE          MOCLDY    48  37  65 NE13      30.22R
6HR MIN TEMP:  48; 6HR MAX TEMP:  52;

MIDWAY         CLOUDY    51  38  60 NE12      30.22R
6HR MIN TEMP:  51; 6HR MAX TEMP:  54;

AURORA         CLOUDY    49  37  63 NE7       30.23R
6HR MIN TEMP:  49; 6HR MAX TEMP:  56;

LANSING*       CLOUDY    49  39  68 N9        30.21R
JOLIET*        CLOUDY    48  39  69 N7        30.23R
WAUKEGAN       MOCLDY    43  37  79 N3        30.23R
6HR MIN TEMP:  43; 6HR MAX TEMP:  48;

DUPAGE AIRPORT CLOUDY    48  37  65 NE14      30.23R
6HR MIN TEMP:  48; 6HR MAX TEMP:  57;

WHEELING       CLOUDY    49  37  63 N9        30.24R
6HR MIN TEMP:  49; 6HR MAX TEMP:  53;

KANKAKEE*      CLOUDY    50  41  71 N6        30.22R
MORRIS*        CLOUDY    49  41  73 NE3       30.22R
LEWIS AIRPORT* CLOUDY    48  38  68 N7        30.23R
NORTHERLY IS     N/A     49  39  68 N13         N/A
$$

WIZ051-052-058>065-066-070>072-220100-
SOUTHEAST WISCONSIN

CITY           SKY/WX    TMP DP  RH WIND       PRES   REMARKS
MILWAUKEE      PTCLDY    46  35  65 N10       30.24S
6HR MIN TEMP:  45; 6HR MAX TEMP:  49;

KENOSHA*       CLEAR     43  37  79 N5        30.24R
RACINE*        CLEAR     46  35  65 N13       30.25R
BURLINGTON     CLEAR     36  33  89 CALM      30.25R
WAUKESHA       CLEAR     39  36  87 E5        30.25R
WEST BEND      CLEAR     41  34  75 E3        30.24R
$$

INZ001>003-010>013-019-020-220100-
NORTHWEST INDIANA

CITY           SKY/WX    TMP DP  RH WIND       PRES   REMARKS
GARY*          NOT AVBL
MICHIGAN CITY* NOT AVBL
RENSSELAER*    NOT AVBL
VALPARAISO     CLOUDY    49  40  71 N5        30.20R
$$

LMZ740>746-220100-
SOUTHERN LAKE MICHIGAN

STATION/POSITION TIME  SKY/WX   TEMP WIND        PRES    VSBY
                                AIR  DIR/SP/G
                 (UTC)          (F)  (DEG/KT/KT) (MB)    (MI)
HARRISON CRIB    0000            49  360/ 18/ 23   N/A
BURNHAM HARBOR   0000            49   10/ 11/ 15   N/A
CALUMET HARBOR   0000            50  360/ 12/ 16 1021.9R
BURNS HARBOR     NOT AVBL
MICHIGAN CITY    0000            50  360/ 16/ 19   N/A
$$

ABBREVIATIONS USED IN REMARKS
   TC - TEMPERATURE IN CELSIUS
  WCI - WIND CHILL INDEX
   HX - HEAT INDEX
  VSB - VISIBILITY
$$



USA.gov is the U.S. government's official web portal to all federal, state and local government web resources and services.